Content
SEND FEEDBACK

Daily
Averages
Monthly
Summary
United States of America

WARRENSBURG, MISSOURI


Home > North America > United States > Missouri
Elevation: 871 feet     Latitude: 38 44N     Longitude: 093 33W

WEATHER
 
SELECT A DAY
Number of Records: 145,471;   Date Range: 1/1/00 - 12/19/14
 
SHARE

PRINT THIS DATA

[ ← Previous Day ]
WEATHER ALMANAC - JANUARY 7, 2013
[ Next Day → ]
[ °C ]   °F
Weather ElementAverageHighLow
Temperature34.2 °F48.4 °F (2:55 pm)21.9 °F (7:55 am)
Dewpoint24.3 °F28.2 °F (12:55 pm)19.2 °F (6:55 am)
Humidity69.3 %90 % (7:55 am)42 % (2:55 pm)
Barometer30.21 in30.33 in (1:55 am)30.11 in (8:55 pm)
Wind Speed11.7 mph24.2 mph (11:55 am)
Wind Gust29.9 mph (11:55 am)
Weather ElementAverage
Visibility10 mi
Wind DirectionSSW (191.7 °)

Weather ElementTotal
Precipitation---
Heating Degree Days29.9 (Base 65)
Averaged from 23 records on January 7, 2013
WEATHER CONDITIONS BREAKOUT
WIND DIRECTION BREAKOUT
WEATHER BY HOUR - JANUARY 7, 2013
[ °C ]   °F
Local TimeTemperatureDewpointHumidityBarometerVisibilityWind DirectionWind SpeedGust SpeedPrecipitationEventsConditions
1:55 AM23.9 °F20.7 °F87 %30.33 in10.0 miSouth (170°)8.1 mphClear
2:55 AM24.3 °F21.0 °F87 %30.33 in10.0 miSouth (170°)6.9 mphClear
3:55 AM25.3 °F21.2 °F84 %30.31 in10.0 miSouth (170°)6.9 mphClear
4:55 AM25.3 °F20.8 °F83 %30.29 in10.0 miSouth (170°)8.1 mphClear
5:55 AM23.4 °F19.6 °F85 %30.30 in10.0 miSouth (170°)5.8 mphClear
6:55 AM22.6 °F19.2 °F87 %30.30 in10.0 miSouth (180°)6.9 mphClear
7:55 AM21.9 °F19.4 °F90 %30.30 in10.0 miSouth (180°)8.1 mphClear
8:55 AM29.7 °F24.3 °F80 %30.30 in10.0 miSouth (190°)12.7 mphClear
9:55 AM34.7 °F25.9 °F70 %30.30 in10.0 miSSW (200°)15.0 mphClear
10:55 AM39.9 °F27.1 °F60 %30.28 in10.0 miSSW (200°)17.3 mphClear
11:55 AM43.2 °F27.0 °F53 %30.24 in10.0 miSW (220°)24.2 mph29.9 mphClear
12:55 PM46.2 °F28.2 °F50 %30.19 in10.0 miSSW (210°)18.4 mphClear
1:55 PM46.0 °F26.8 °F47 %30.17 in10.0 miSSW (210°)17.3 mphClear
2:55 PM48.4 °F26.1 °F42 %30.16 in10.0 miSW (220°)19.6 mphClear
3:55 PM48.2 °F25.7 °F42 %30.14 in10.0 miSouth (190°)19.6 mphClear
4:55 PM43.2 °F26.6 °F52 %30.14 in10.0 miSSW (200°)9.2 mphClear
5:55 PM36.7 °F25.3 °F64 %30.14 in10.0 miSSW (210°)9.2 mphClear
6:55 PM35.2 °F25.5 °F68 %30.12 in10.0 miSouth (190°)8.1 mphClear
7:55 PM33.8 °F24.6 °F69 %30.12 in10.0 miSouth (190°)9.2 mphClear
8:55 PM33.8 °F25.3 °F71 %30.11 in10.0 miSouth (190°)11.5 mphPartly Cloudy
9:55 PM33.8 °F25.9 °F73 %30.11 in10.0 miSouth (190°)8.1 mphScattered Clouds
10:55 PM34.0 °F27.0 °F75 %30.11 in10.0 miSSW (200°)9.2 mphClear
11:55 PM33.4 °F26.6 °F76 %30.11 in10.0 miSouth (190°)9.2 mphClear
Hourly data recorded from KSZL, located miles away from Warrensburg, Missouri







STORIES FROM OUR PARTNERS